This is the latest recevied weather packets stored in our database for station/object NL3D. If no packets are shown the sender has not sent any weather packets the latest 1 day(s).
| Time | Temp. | Humidity | Pressure | Rain* | Wind** | Luminosity | Snow |
|---|---|---|---|---|---|---|---|
| 1778040581 | 8.33° C | 52% | 1007.4 hPa | 0 mm | - | 40 W/m² | - |
| 1778039974 | 8.89° C | 52% | 1007.6 hPa | 0 mm | - | 42 W/m² | - |
| 1778039672 | 9.44° C | 50% | 1007.3 hPa | 0 mm | - | 46 W/m² | - |
| 1778039368 | 10° C | 48% | 1007.2 hPa | 0 mm | - | 59 W/m² | - |
| 1778039066 | 10° C | 48% | 1007.5 hPa | 0 mm | - | 118 W/m² | - |
| 1778038763 | 10° C | 48% | 1007.3 hPa | 0 mm | - | 115 W/m² | - |
| 1778038460 | 10° C | 47% | 1007.3 hPa | 0 mm | - | 100 W/m² | - |
| 1778038157 | 10° C | 47% | 1007.1 hPa | 0 mm | - | 138 W/m² | - |
| 1778037854 | 10° C | 48% | 1007.2 hPa | 0 mm | - | 113 W/m² | - |
| 1778037550 | 10° C | 47% | 1007 hPa | 0 mm | - | 124 W/m² | - |
| 1778037248 | 10° C | 47% | 1006.9 hPa | 0 mm | - | 121 W/m² | - |
| 1778036945 | 10° C | 47% | 1007 hPa | 0 mm | - | 135 W/m² | - |
| 1778036036 | 10° C | 48% | 1006.9 hPa | 0 mm | - | 145 W/m² | - |
| 1778035733 | 10° C | 49% | 1007.1 hPa | 0 mm | - | 191 W/m² | - |
| 1778035430 | 10° C | 49% | 1006.8 hPa | 0 mm | - | 164 W/m² | - |
| 1778035126 | 10° C | 48% | 1006.9 hPa | 0 mm | - | 172 W/m² | - |
| 1778034520 | 10.56° C | 49% | 1006.9 hPa | 0 mm | - | 202 W/m² | - |
| 1778034218 | 10.56° C | 48% | 1006.9 hPa | 0 mm | - | 219 W/m² | - |
| 1778033916 | 10.56° C | 47% | 1006.9 hPa | 0 mm | - | 196 W/m² | - |
| 1778033612 | 10.56° C | 47% | 1006.7 hPa | 0 mm | - | 207 W/m² | - |
| 1778033309 | 10.56° C | 47% | 1006.8 hPa | 0 mm | - | 229 W/m² | - |
| 1778033007 | 10.56° C | 47% | 1006.8 hPa | 0 mm | - | 211 W/m² | - |
| 1778032704 | 10.56° C | 48% | 1006.6 hPa | 0 mm | - | 191 W/m² | - |
| 1778032402 | 11.11° C | 47% | 1006.9 hPa | 0 mm | - | 236 W/m² | - |
| 1778032098 | 11.67° C | 47% | 1006.8 hPa | 0 mm | - | 519 W/m² | - |
* Rain latest hour (hover to see other rain measurements)
** Current wind speed in m/s (hover to see current wind gust speed)